| time (UTC) | temp C | wind direction | speed KPH | gust KPH | rain 1hr cm | rain 24hr cm | rain mn cm | humidity % | barometer mb |
| 20260507193057 | 13 | 5 | 3.2 | 6.4 | 0.00 | 0.05 | 0.03 | 71 | 1012.7 |
| 20260507191557 | 14 | 355 | 3.2 | 6.4 | 0.00 | 0.05 | 0.03 | 69 | 1012.6 |
| 20260507190056 | 15 | 360 | 3.2 | 6.4 | 0.00 | 0.05 | 0.03 | 67 | 1012.5 |
| 20260507184555 | 15 | 341 | 4.8 | 9.7 | 0.00 | 0.51 | 0.03 | 66 | 1012.4 |
| 20260507183057 | 15 | 5 | 8.0 | 12.9 | 0.00 | 0.51 | 0.03 | 65 | 1012.3 |
| 20260507181604 | 16 | 349 | 6.4 | 11.3 | 0.00 | 0.51 | 0.03 | 62 | 1012.3 |
| 20260507180055 | 16 | 12 | 8.0 | 16.1 | 0.00 | 0.51 | 0.03 | 62 | 1012.2 |
| 20260507174558 | 16 | 360 | 8.0 | 17.7 | 0.00 | 0.51 | 0.03 | 62 | 1012.2 |
| 20260507173058 | 17 | 360 | 9.7 | 16.1 | 0.00 | 0.51 | 0.03 | 59 | 1012.2 |
| 20260507171601 | 17 | 5 | 8.0 | 12.9 | 0.00 | 0.51 | 0.03 | 58 | 1012.2 |
| 20260507170052 | 17 | 355 | 8.0 | 14.5 | 0.00 | 0.51 | 0.03 | 59 | 1012.2 |
| 20260507164551 | 18 | 12 | 8.0 | 16.1 | 0.00 | 0.51 | 0.03 | 59 | 1012.3 |
| 20260507163050 | 18 | 22 | 8.0 | 14.5 | 0.00 | 0.51 | 0.03 | 59 | 1012.4 |
| 20260507161559 | 18 | 342 | 6.4 | 14.5 | 0.00 | 0.51 | 0.03 | 57 | 1012.4 |
| 20260507160049 | 18 | 340 | 9.7 | 16.1 | 0.00 | 0.51 | 0.03 | 59 | 1012.5 |
| 20260507154549 | 18 | 290 | 6.4 | 12.9 | 0.00 | 0.51 | 0.03 | 55 | 1012.5 |
| 20260507153108 | 18 | 351 | 3.2 | 12.9 | 0.00 | 0.51 | 0.03 | 54 | 1012.5 |
| 20260507151556 | 18 | 355 | 11.3 | 14.5 | 0.00 | 0.51 | 0.03 | 55 | 1012.7 |
| 20260507150052 | 18 | 355 | 11.3 | 16.1 | 0.00 | 0.51 | 0.03 | 58 | 1012.7 |
| 20260507144548 | 18 | 334 | 8.0 | 16.1 | 0.00 | 0.51 | 0.03 | 57 | 1012.9 |
| 20260507143052 | 18 | 298 | 3.2 | 16.1 | 0.00 | 0.51 | 0.03 | 59 | 1012.9 |
| 20260507141544 | 18 | 14 | 8.0 | 17.7 | 0.00 | 0.51 | 0.03 | 57 | 1013.0 |
| 20260507140043 | 18 | 302 | 3.2 | 12.9 | 0.00 | 0.51 | 0.03 | 60 | 1013.2 |
| 20260507134540 | 18 | 324 | 8.0 | 12.9 | 0.00 | 0.51 | 0.03 | 62 | 1013.3 |
| 20260507133037 | 18 | 9 | 8.0 | 16.1 | 0.00 | 0.51 | 0.03 | 64 | 1013.5 |
| 20260507131536 | 17 | 342 | 9.7 | 17.7 | 0.00 | 0.51 | 0.03 | 64 | 1013.6 |
| 20260507130053 | 17 | 48 | 4.8 | 11.3 | 0.00 | 0.51 | 0.03 | 64 | 1013.7 |
| 20260507124533 | 17 | 341 | 1.6 | 14.5 | 0.00 | 0.51 | 0.03 | 68 | 1013.8 |
| 20260507123037 | 16 | 320 | 8.0 | 14.5 | 0.00 | 0.51 | 0.03 | 69 | 1013.9 |
| 20260507121535 | 17 | 9 | 1.6 | 12.9 | 0.00 | 0.51 | 0.03 | 62 | 1013.9 |
| 20260507120036 | 17 | 344 | 4.8 | 16.1 | 0.00 | 0.51 | 0.03 | 71 | 1013.9 |
| 20260507114528 | 17 | 279 | 6.4 | 14.5 | 0.00 | 0.53 | 0.03 | 73 | 1014.0 |
| 20260507113027 | 16 | 5 | 8.0 | 14.5 | 0.00 | 0.53 | 0.03 | 70 | 1014.2 |
| 20260507111523 | 16 | 310 | 6.4 | 16.1 | 0.00 | 0.53 | 0.03 | 74 | 1014.2 |
| 20260507110025 | 15 | 289 | 4.8 | 14.5 | 0.00 | 0.53 | 0.03 | 74 | 1014.3 |
| 20260507104521 | 15 | 316 | 6.4 | 14.5 | 0.00 | 0.66 | 0.03 | 72 | 1014.4 |
| 20260507103022 | 15 | 277 | 3.2 | 11.3 | 0.00 | 0.66 | 0.03 | 76 | 1014.4 |
| 20260507101525 | 15 | 307 | 3.2 | 11.3 | 0.00 | 0.66 | 0.03 | 73 | 1014.5 |
| 20260507100016 | 14 | 355 | 6.4 | 9.7 | 0.00 | 0.66 | 0.03 | 79 | 1014.7 |
| 20260507094512 | 13 | 355 | 6.4 | 11.3 | 0.00 | 1.02 | 0.03 | 79 | 1014.6 |
| 20260507093010 | 13 | 13 | 3.2 | 9.7 | 0.00 | 1.02 | 0.03 | 82 | 1014.5 |
| 20260507091507 | 13 | 32 | 3.2 | 6.4 | 0.00 | 1.02 | 0.03 | 84 | 1014.4 |
| 20260507090006 | 13 | 327 | 3.2 | 8.0 | 0.00 | 1.35 | 0.03 | 87 | 1014.4 |
| 20260507084504 | 13 | 281 | 1.6 | 8.0 | 0.00 | 1.35 | 0.03 | 88 | 1014.3 |
| 20260507083003 | 12 | 5 | 1.6 | 9.7 | 0.00 | 1.35 | 0.03 | 90 | 1014.2 |
| 20260507081604 | 12 | 328 | 3.2 | 11.3 | 0.00 | 1.35 | 0.03 | 90 | 1014.3 |
| 20260507080056 | 12 | 301 | 4.8 | 8.0 | 0.00 | 1.35 | 0.03 | 91 | 1014.2 |
| 20260507074606 | 11 | 344 | 4.8 | 8.0 | 0.00 | 1.73 | 0.03 | 92 | 1014.1 |
| 20260507073059 | 11 | 317 | 1.6 | 8.0 | 0.00 | 1.73 | 0.03 | 93 | 1014.1 |
| 20260507071549 | 11 | 306 | 3.2 | 6.4 | 0.00 | 1.73 | 0.03 | 94 | 1014.1 |
| 20260507070047 | 11 | 346 | 1.6 | 6.4 | 0.00 | 1.73 | 0.03 | 95 | 1014.0 |
| 20260507064544 | 10 | 273 | 0.0 | 1.6 | 0.00 | 2.21 | 0.03 | 95 | 1013.9 |
| 20260507063047 | 10 | 347 | 0.0 | 0.0 | 0.00 | 2.21 | 0.03 | 96 | 1013.8 |
| 20260507061539 | 10 | 347 | 0.0 | 0.0 | 0.00 | 2.21 | 0.03 | 97 | 1013.6 |
| 20260507060036 | 10 | 347 | 0.0 | 0.0 | 0.00 | 2.21 | 0.03 | 97 | 1013.6 |
| 20260507054539 | 9 | 347 | 0.0 | 0.0 | 0.00 | 2.67 | 0.03 | 97 | 1013.6 |
| 20260507053029 | 9 | 347 | 0.0 | 0.0 | 0.00 | 2.67 | 0.03 | 97 | 1013.6 |
| 20260507051526 | 8 | 295 | 0.0 | 0.0 | 0.00 | 2.67 | 0.03 | 97 | 1013.5 |
| 20260507050032 | 8 | 138 | 0.0 | 0.0 | 0.00 | 2.67 | 0.03 | 96 | 1013.4 |
| 20260507044523 | 8 | 138 | 0.0 | 0.0 | 0.00 | 3.02 | 0.03 | 96 | 1013.2 |
| 20260507043016 | 8 | 138 | 0.0 | 0.0 | 0.00 | 3.02 | 0.03 | 96 | 1013.1 |
| 20260507041527 | 8 | 138 | 0.0 | 0.0 | 0.00 | 3.02 | 0.03 | 96 | 1013.1 |
| 20260507040014 | 8 | 138 | 0.0 | 0.0 | 0.00 | 3.02 | 0.03 | 96 | 1013.0 |
| 20260507034517 | 8 | 138 | 0.0 | 0.0 | 0.00 | 3.12 | 0.03 | 96 | 1013.0 |
| 20260507033013 | 8 | 138 | 1.6 | 4.8 | 0.00 | 3.12 | 0.03 | 96 | 1012.9 |
| 20260507031521 | 8 | 167 | 0.0 | 0.0 | 0.00 | 3.12 | 0.03 | 96 | 1013.1 |
| 20260507030013 | 8 | 167 | 0.0 | 0.0 | 0.00 | 3.12 | 0.03 | 96 | 1013.0 |
| 20260507024513 | 8 | 167 | 0.0 | 0.0 | 0.00 | 3.12 | 0.03 | 96 | 1013.0 |
| 20260507023009 | 8 | 167 | 0.0 | 0.0 | 0.00 | 3.12 | 0.03 | 96 | 1013.0 |
| 20260507021508 | 8 | 167 | 0.0 | 0.0 | 0.00 | 3.12 | 0.03 | 96 | 1012.8 |
| 20260507020008 | 8 | 167 | 0.0 | 0.0 | 0.00 | 3.12 | 0.03 | 96 | 1012.7 |
| 20260507014515 | 8 | 167 | 0.0 | 0.0 | 0.03 | 3.12 | 0.03 | 96 | 1012.7 |
| 20260507013005 | 8 | 167 | 0.0 | 0.0 | 0.03 | 3.12 | 0.03 | 96 | 1012.7 |
| 20260507011506 | 8 | 167 | 0.0 | 0.0 | 0.03 | 3.12 | 0.03 | 95 | 1012.6 |
| 20260507010003 | 9 | 167 | 0.0 | 0.0 | 0.03 | 3.15 | 0.03 | 96 | 1012.6 |
| 20260507004505 | 9 | 167 | 0.0 | 0.0 | 0.00 | 3.12 | 0.00 | 96 | 1012.6 |
| 20260507003001 | 9 | 167 | 0.0 | 3.2 | 0.00 | 3.12 | 0.00 | 96 | 1012.6 |
| 20260507001602 | 9 | 167 | 1.6 | 4.8 | 0.00 | 3.12 | 0.00 | 96 | 1012.5 |
| 20260507000058 | 9 | 192 | 0.0 | 3.2 | 0.00 | 3.12 | 0.00 | 96 | 1012.4 |
| 20260506234602 | 9 | 214 | 0.0 | 0.0 | 0.00 | 3.12 | 0.00 | 96 | 1012.4 |
| 20260506233059 | 9 | 214 | 0.0 | 1.6 | 0.00 | 3.12 | 0.00 | 96 | 1012.4 |
| 20260506231559 | 9 | 215 | 0.0 | 1.6 | 0.00 | 3.12 | 0.00 | 96 | 1012.4 |
| 20260506230057 | 9 | 214 | 0.0 | 3.2 | 0.00 | 3.12 | 0.00 | 96 | 1012.3 |
| 20260506224551 | 9 | 213 | 1.6 | 4.8 | 0.00 | 3.12 | 0.00 | 95 | 1012.1 |
| 20260506223055 | 9 | 259 | 0.0 | 1.6 | 0.00 | 3.12 | 0.00 | 95 | 1012.0 |
| 20260506221548 | 9 | 259 | 0.0 | 1.6 | 0.00 | 3.12 | 0.00 | 95 | 1011.9 |
| 20260506220047 | 9 | 259 | 0.0 | 3.2 | 0.00 | 3.12 | 0.00 | 95 | 1011.8 |
| 20260506214545 | 9 | 259 | 0.0 | 3.2 | 0.03 | 3.25 | 3.12 | 95 | 1011.9 |
| 20260506213102 | 9 | 298 | 0.0 | 0.0 | 0.03 | 3.25 | 3.12 | 95 | 1011.8 |
| 20260506211602 | 9 | 299 | 0.0 | 4.8 | 0.03 | 3.25 | 3.12 | 95 | 1011.9 |
| 20260506210043 | 9 | 126 | 0.0 | 1.6 | 0.03 | 3.25 | 3.12 | 94 | 1011.8 |
| 20260506204546 | 9 | 126 | 0.0 | 4.8 | 0.00 | 3.23 | 3.10 | 95 | 1011.7 |
| 20260506203041 | 9 | 125 | 3.2 | 6.4 | 0.00 | 3.23 | 3.10 | 95 | 1011.5 |
| 20260506201550 | 9 | 99 | 3.2 | 4.8 | 0.00 | 3.23 | 3.10 | 94 | 1011.5 |
| 20260506200034 | 9 | 61 | 1.6 | 4.8 | 0.00 | 3.23 | 3.10 | 94 | 1011.4 |